Flag for Austria Weather past 2 weeks in Kirchdorf an der Krems, Upper Austria, Austria

Now
50 °F

Cool.


Feels Like: 48 °F
Forecast: 48 / 63 °F
Wind: 5 mph from West

Location: Kremsmuenster

Current Time: Oct 20, 2014 at 6:49:30 AM

Latest Report: Oct 20, 2014 at 5:00 AM


Visibility: N/A

Pressure: 30.16 "Hg

Humidity: 96%

Dew point: 49 °F

Location of Kirchdorf an der KremsLocation

Historic Weather in Kirchdorf an der Krems — Graph

°F

Kirchdorf an der Krems temperature yesterday

Maximum temperature yesterday: 62 °F (at 4:00 PM)
Minimum temperature yesterday: 47 °F (at 8:00 AM)
Average temperature yesterday: 53 °F

Past Weeks' High & Low Weather Summary

 TemperatureHumidityPressure
High70 °F (Oct 12, 4:00 PM)100% (Oct 9, 6:00 AM)30.32 "Hg (Oct 9, 6:00 AM)
Low43 °F (Oct 7, 7:00 AM)56% (Oct 14, 4:00 PM)29.62 "Hg (Oct 14, 1:00 AM)
Average56 °F89%29.97 "Hg
* Reported Oct 5 5:00 AM — Oct 20 5:00 AM, Kirchdorf an der Krems, Weather by CustomWeather, © 2014

Note: Actual official high and low records may vary slightly from our data, if they occured in-between our weather recording intervals... More about our weather records

Advertising

Kirchdorf an der Krems weather history for previous 24 hours

 ConditionsComfort  
Time TempWeatherWind HumidityBarometerVisibility
5:00 AM
Oct 20
50 °FCool.5 mph96%30.16 "HgN/A
4:00 AM52 °FCool.3 mph93%30.15 "HgN/A
3:00 AM53 °FCool.3 mph90%30.15 "HgN/A
2:00 AM53 °FCool.3 mph94%30.14 "HgN/A
1:00 AM51 °FCool.1 mph97%30.16 "HgN/A
12:00 AM51 °FCool.1 mph98%30.17 "HgN/A
11:00 PM
Oct 19
52 °FCool.2 mph97%30.19 "HgN/A
10:00 PM53 °FCool.1 mph97%30.19 "HgN/A
9:00 PM53 °FCool.No wind97%30.18 "HgN/A
8:00 PM56 °FCool.3 mph92%30.17 "HgN/A
7:00 PM56 °FCool.1 mph92%30.17 "HgN/A
6:00 PM58 °FCool.1 mph89%30.16 "HgN/A
5:00 PM60 °FCool.No wind84%30.16 "HgN/A
4:00 PM62 °FCool.1 mph77%30.17 "HgN/A
3:00 PM60 °FCool.1 mph82%30.19 "HgN/A
2:00 PM56 °FCool.1 mph89%30.21 "HgN/A
1:00 PM53 °FCool.2 mph96%30.24 "HgN/A
12:00 PM51 °FCool.1 mph98%30.26 "HgN/A
11:00 AMN/APassing clouds.5 mphN/AN/A2 mi
9:00 AM47 °FCool.2 mph99%30.27 "HgN/A
8:00 AM47 °FFog.1 mph99%30.26 "Hg0 mi
7:00 AM47 °FFog.1 mph99%30.25 "Hg0 mi
6:00 AM48 °FCool.1 mph99%30.26 "HgN/A
Weather by CustomWeather, © 2014

See weather overviewHow to use our weather pages